Time,TemperatureF,DewpointF,PressureIn,WindDirection,WindDirectionDegrees,WindSpeedMPH,WindSpeedGustMPH,Humidity,HourlyPrecipIn,Conditions,Clouds,dailyrainin,SoftwareType,DateUTC
2013-03-04 00:00:00,31.7,20.6,29.75,NW,306,2.0,9.0,63,0.00,,---,0.00,VWS V13.01,2013-03-04 05:00:00,
2013-03-04 00:05:00,31.6,20.5,29.75,WNW,294,1.0,4.0,63,0.00,,---,0.00,VWS V13.01,2013-03-04 05:05:00,
2013-03-04 00:10:00,31.5,20.4,29.76,West,264,1.0,6.0,63,0.00,,---,0.00,VWS V13.01,2013-03-04 05:10:00,
2013-03-04 00:15:00,31.4,20.6,29.76,SW,232,4.0,5.0,64,0.00,,---,0.00,VWS V13.01,2013-03-04 05:15:00,
2013-03-04 00:20:00,31.4,20.6,29.76,WNW,302,7.0,10.0,64,0.00,,---,0.00,VWS V13.01,2013-03-04 05:20:00,
2013-03-04 00:25:00,31.3,20.2,29.76,WNW,292,4.0,10.0,63,0.00,,---,0.00,VWS V13.01,2013-03-04 05:25:00,
2013-03-04 00:30:00,31.4,20.3,29.76,West,280,1.0,9.0,63,0.00,,---,0.00,VWS V13.01,2013-03-04 05:30:00,
2013-03-04 00:35:00,31.2,20.5,29.76,WSW,252,4.0,5.0,64,0.00,,---,0.00,VWS V13.01,2013-03-04 05:35:00,
2013-03-04 00:40:00,31.2,20.5,29.76,WSW,248,3.0,3.0,64,0.00,,---,0.00,VWS V13.01,2013-03-04 05:40:00,
2013-03-04 00:45:00,31.1,20.4,29.76,West,281,3.0,5.0,64,0.00,,---,0.00,VWS V13.01,2013-03-04 05:45:00,
2013-03-04 00:50:00,31.0,19.9,29.77,West,260,1.0,2.0,63,0.00,,---,0.00,VWS V13.01,2013-03-04 05:50:00,
2013-03-04 00:55:00,31.0,19.9,29.77,SW,227,1.0,5.0,63,0.00,,---,0.00,VWS V13.01,2013-03-04 05:55:00,
2013-03-04 01:00:00,30.9,19.8,29.76,WNW,290,3.0,3.0,63,0.00,,---,0.00,VWS V13.01,2013-03-04 06:00:00,
2013-03-04 01:05:00,30.9,19.8,29.77,West,267,3.0,4.0,63,0.00,,---,0.00,VWS V13.01,2013-03-04 06:05:00,
2013-03-04 01:10:00,30.8,20.1,29.77,West,260,0.0,1.0,64,0.00,,---,0.00,VWS V13.01,2013-03-04 06:10:00,
2013-03-04 01:15:00,30.7,20.0,29.77,West,281,3.0,4.0,64,0.00,,---,0.00,VWS V13.01,2013-03-04 06:15:00,
2013-03-04 01:20:00,30.7,20.0,29.77,WNW,287,1.0,3.0,64,0.00,,---,0.00,VWS V13.01,2013-03-04 06:20:00,
2013-03-04 01:25:00,30.6,19.5,29.77,WNW,294,5.0,6.0,63,0.00,,---,0.00,VWS V13.01,2013-03-04 06:25:00,
2013-03-04 01:30:00,30.7,19.2,29.77,NW,312,3.0,10.0,62,0.00,,---,0.00,VWS V13.01,2013-03-04 06:30:00,
2013-03-04 01:35:00,30.7,19.2,29.76,WNW,286,0.0,4.0,62,0.00,,---,0.00,VWS V13.01,2013-03-04 06:35:00,
2013-03-04 01:40:00,30.6,19.5,29.77,ENE,64,2.0,5.0,63,0.00,,---,0.00,VWS V13.01,2013-03-04 06:40:00,
2013-03-04 01:45:00,30.6,19.5,29.77,WNW,292,1.0,2.0,63,0.00,,---,0.00,VWS V13.01,2013-03-04 06:45:00,
2013-03-04 01:50:00,30.5,19.4,29.77,West,279,2.0,2.0,63,0.00,,---,0.00,VWS V13.01,2013-03-04 06:50:00,
2013-03-04 01:55:00,30.4,19.3,29.77,NW,309,0.0,1.0,63,0.00,,---,0.00,VWS V13.01,2013-03-04 06:55:00,
2013-03-04 02:00:00,30.4,19.7,29.77,WNW,294,0.0,1.0,64,0.00,,---,0.00,VWS V13.01,2013-03-04 07:00:00,
2013-03-04 02:05:00,30.3,19.6,29.77,WNW,291,1.0,6.0,64,0.00,,---,0.00,VWS V13.01,2013-03-04 07:05:00,
2013-03-04 02:10:00,30.2,19.5,29.77,NNW,342,1.0,2.0,64,0.00,,---,0.00,VWS V13.01,2013-03-04 07:10:00,
2013-03-04 02:15:00,30.2,19.5,29.77,WNW,290,0.0,1.0,64,0.00,,---,0.00,VWS V13.01,2013-03-04 07:15:00,
2013-03-04 02:20:00,30.1,19.4,29.77,WNW,294,2.0,2.0,64,0.00,,---,0.00,VWS V13.01,2013-03-04 07:20:00,
2013-03-04 02:25:00,30.1,19.4,29.77,WNW,288,4.0,6.0,64,0.00,,---,0.00,VWS V13.01,2013-03-04 07:25:00,
2013-03-04 02:30:00,30.1,19.4,29.77,WNW,294,7.0,7.0,64,0.00,,---,0.00,VWS V13.01,2013-03-04 07:30:00,
2013-03-04 02:35:00,30.0,19.3,29.76,WNW,294,4.0,10.0,64,0.00,,---,0.00,VWS V13.01,2013-03-04 07:35:00,
2013-03-04 02:40:00,30.0,19.7,29.77,NW,323,4.0,5.0,65,0.00,,---,0.00,VWS V13.01,2013-03-04 07:40:00,
2013-03-04 02:45:00,29.9,19.6,29.77,WNW,287,0.0,4.0,65,0.00,,---,0.00,VWS V13.01,2013-03-04 07:45:00,
2013-03-04 02:50:00,29.9,19.6,29.77,West,273,2.0,4.0,65,0.00,,---,0.00,VWS V13.01,2013-03-04 07:50:00,
2013-03-04 02:55:00,29.8,19.8,29.77,West,277,0.0,2.0,66,0.00,,---,0.00,VWS V13.01,2013-03-04 07:55:00,
2013-03-04 03:00:00,29.7,19.8,29.77,NW,312,3.0,3.0,66,0.00,,---,0.00,VWS V13.01,2013-03-04 08:00:00,
2013-03-04 03:05:00,29.6,19.6,29.76,North,11,1.0,6.0,66,0.00,,---,0.00,VWS V13.01,2013-03-04 08:05:00,
2013-03-04 03:10:00,29.7,19.8,29.77,SE,146,2.0,3.0,66,0.00,,---,0.00,VWS V13.01,2013-03-04 08:10:00,
2013-03-04 03:15:00,29.7,19.8,29.77,WNW,286,3.0,4.0,66,0.00,,---,0.00,VWS V13.01,2013-03-04 08:15:00,
2013-03-04 03:20:00,29.6,19.6,29.77,West,279,6.0,6.0,66,0.00,,---,0.00,VWS V13.01,2013-03-04 08:20:00,
2013-03-04 03:25:00,29.6,19.6,29.77,WSW,249,5.0,5.0,66,0.00,,---,0.00,VWS V13.01,2013-03-04 08:25:00,
2013-03-04 03:30:00,29.6,19.6,29.77,WNW,291,1.0,5.0,66,0.00,,---,0.00,VWS V13.01,2013-03-04 08:30:00,
2013-03-04 03:35:00,29.5,19.6,29.77,West,280,1.0,5.0,66,0.00,,---,0.00,VWS V13.01,2013-03-04 08:35:00,
2013-03-04 03:40:00,29.5,19.6,29.77,WNW,292,3.0,4.0,66,0.00,,---,0.00,VWS V13.01,2013-03-04 08:40:00,
2013-03-04 03:45:00,29.4,19.8,29.77,WNW,295,0.0,1.0,67,0.00,,---,0.00,VWS V13.01,2013-03-04 08:45:00,
2013-03-04 03:50:00,29.4,19.8,29.77,WNW,296,1.0,2.0,67,0.00,,---,0.00,VWS V13.01,2013-03-04 08:50:00,
2013-03-04 03:55:00,29.3,19.7,29.77,WNW,295,5.0,5.0,67,0.00,,---,0.00,VWS V13.01,2013-03-04 08:55:00,
2013-03-04 04:00:00,29.3,19.7,29.78,West,268,1.0,2.0,67,0.00,,---,0.00,VWS V13.01,2013-03-04 09:00:00,
2013-03-04 04:05:00,29.3,19.7,29.78,WNW,294,4.0,6.0,67,0.00,,---,0.00,VWS V13.01,2013-03-04 09:05:00,
2013-03-04 04:10:00,29.3,19.7,29.78,WNW,291,3.0,6.0,67,0.00,,---,0.00,VWS V13.01,2013-03-04 09:10:00,
2013-03-04 04:15:00,29.3,19.7,29.78,WNW,286,1.0,6.0,67,0.00,,---,0.00,VWS V13.01,2013-03-04 09:15:00,
2013-03-04 04:20:00,29.2,19.6,29.78,West,276,4.0,4.0,67,0.00,,---,0.00,VWS V13.01,2013-03-04 09:20:00,
2013-03-04 04:25:00,29.2,20.0,29.78,WNW,292,0.0,2.0,68,0.00,,---,0.00,VWS V13.01,2013-03-04 09:25:00,
2013-03-04 04:30:00,29.2,19.6,29.78,NW,322,0.0,6.0,67,0.00,,---,0.00,VWS V13.01,2013-03-04 09:30:00,
2013-03-04 04:35:00,29.2,20.0,29.78,West,279,1.0,2.0,68,0.00,,---,0.00,VWS V13.01,2013-03-04 09:35:00,
2013-03-04 04:40:00,29.2,20.0,29.78,WNW,290,0.0,4.0,68,0.00,,---,0.00,VWS V13.01,2013-03-04 09:40:00,
2013-03-04 04:45:00,29.2,20.0,29.78,SW,226,0.0,1.0,68,0.00,,---,0.00,VWS V13.01,2013-03-04 09:45:00,
2013-03-04 04:50:00,29.1,19.9,29.78,NW,306,0.0,2.0,68,0.00,,---,0.00,VWS V13.01,2013-03-04 09:50:00,
2013-03-04 04:55:00,29.1,20.2,29.78,West,269,1.0,3.0,69,0.00,,---,0.00,VWS V13.01,2013-03-04 09:55:00,
2013-03-04 05:00:00,29.0,19.8,29.78,WSW,250,1.0,3.0,68,0.00,,---,0.00,VWS V13.01,2013-03-04 10:00:00,
2013-03-04 05:05:00,29.0,20.1,29.79,WSW,245,2.0,4.0,69,0.00,,---,0.00,VWS V13.01,2013-03-04 10:05:00,
2013-03-04 05:10:00,29.0,20.1,29.78,West,272,1.0,6.0,69,0.00,,---,0.00,VWS V13.01,2013-03-04 10:10:00,
2013-03-04 05:15:00,29.0,20.1,29.79,West,281,2.0,4.0,69,0.00,,---,0.00,VWS V13.01,2013-03-04 10:15:00,
2013-03-04 05:20:00,29.1,19.9,29.79,West,263,1.0,5.0,68,0.00,,---,0.00,VWS V13.01,2013-03-04 10:20:00,
2013-03-04 05:25:00,29.0,19.8,29.79,WSW,240,3.0,5.0,68,0.00,,---,0.00,VWS V13.01,2013-03-04 10:25:00,
2013-03-04 05:30:00,29.0,20.1,29.79,West,275,3.0,4.0,69,0.00,,---,0.00,VWS V13.01,2013-03-04 10:30:00,
2013-03-04 05:35:00,29.0,19.8,29.79,East,86,0.0,1.0,68,0.00,,---,0.00,VWS V13.01,2013-03-04 10:35:00,
2013-03-04 05:40:00,29.0,19.8,29.79,SW,218,1.0,3.0,68,0.00,,---,0.00,VWS V13.01,2013-03-04 10:40:00,
2013-03-04 05:45:00,29.0,19.8,29.79,West,261,2.0,2.0,68,0.00,,---,0.00,VWS V13.01,2013-03-04 10:45:00,
2013-03-04 05:50:00,29.0,19.8,29.79,SW,229,5.0,7.0,68,0.00,,---,0.00,VWS V13.01,2013-03-04 10:50:00,
2013-03-04 05:55:00,29.0,19.8,29.80,WSW,247,3.0,4.0,68,0.00,,---,0.00,VWS V13.01,2013-03-04 10:55:00,
2013-03-04 06:00:00,29.0,20.1,29.80,SW,218,0.0,2.0,69,0.00,,---,0.00,VWS V13.01,2013-03-04 11:00:00,
2013-03-04 06:05:00,28.9,20.0,29.79,WSW,237,0.0,0.0,69,0.00,,---,0.00,VWS V13.01,2013-03-04 11:05:00,
2013-03-04 06:10:00,29.0,20.1,29.80,West,271,2.0,3.0,69,0.00,,---,0.00,VWS V13.01,2013-03-04 11:10:00,
2013-03-04 06:15:00,29.0,20.1,29.80,WSW,248,0.0,1.0,69,0.00,,---,0.00,VWS V13.01,2013-03-04 11:15:00,
2013-03-04 06:20:00,28.9,20.0,29.80,WSW,249,1.0,2.0,69,0.00,,---,0.00,VWS V13.01,2013-03-04 11:20:00,
2013-03-04 06:25:00,28.9,20.0,29.80,West,275,2.0,3.0,69,0.00,,---,0.00,VWS V13.01,2013-03-04 11:25:00,
2013-03-04 06:30:00,28.9,20.0,29.80,WSW,254,0.0,1.0,69,0.00,,---,0.00,VWS V13.01,2013-03-04 11:30:00,
2013-03-04 06:35:00,29.0,20.1,29.80,West,275,2.0,5.0,69,0.00,,---,0.00,VWS V13.01,2013-03-04 11:35:00,
2013-03-04 06:40:00,29.0,20.1,29.80,SW,236,0.0,4.0,69,0.00,,---,0.00,VWS V13.01,2013-03-04 11:40:00,
2013-03-04 06:45:00,29.0,20.5,29.80,WSW,249,1.0,5.0,70,0.00,,---,0.00,VWS V13.01,2013-03-04 11:45:00,
2013-03-04 06:50:00,29.1,20.2,29.81,SW,227,5.0,6.0,69,0.00,,---,0.00,VWS V13.01,2013-03-04 11:50:00,
2013-03-04 06:55:00,29.2,20.3,29.81,SW,221,0.0,5.0,69,0.00,,---,0.00,VWS V13.01,2013-03-04 11:55:00,
2013-03-04 07:00:00,29.3,20.7,29.81,WNW,288,0.0,3.0,70,0.00,,---,0.00,VWS V13.01,2013-03-04 12:00:00,
2013-03-04 07:05:00,29.5,20.6,29.81,NE,49,1.0,4.0,69,0.00,,---,0.00,VWS V13.01,2013-03-04 12:05:00,
2013-03-04 07:10:00,29.6,20.7,29.81,NW,321,3.0,3.0,69,0.00,,---,0.00,VWS V13.01,2013-03-04 12:10:00,
2013-03-04 07:15:00,29.8,20.9,29.81,WSW,244,1.0,4.0,69,0.00,,---,0.00,VWS V13.01,2013-03-04 12:15:00,
2013-03-04 07:20:00,30.0,21.1,29.81,WNW,287,1.0,4.0,69,0.00,,---,0.00,VWS V13.01,2013-03-04 12:20:00,
2013-03-04 07:25:00,30.3,21.0,29.81,NNW,329,3.0,5.0,68,0.00,,---,0.00,VWS V13.01,2013-03-04 12:25:00,
2013-03-04 07:30:00,30.6,21.3,29.81,West,275,0.0,6.0,68,0.00,,---,0.00,VWS V13.01,2013-03-04 12:30:00,
2013-03-04 07:35:00,30.8,21.5,29.81,West,272,4.0,10.0,68,0.00,,---,0.00,VWS V13.01,2013-03-04 12:35:00,
2013-03-04 07:40:00,31.1,21.4,29.81,West,267,2.0,9.0,67,0.00,,---,0.00,VWS V13.01,2013-03-04 12:40:00,
2013-03-04 07:45:00,31.3,21.6,29.81,WNW,295,0.0,4.0,67,0.00,,---,0.00,VWS V13.01,2013-03-04 12:45:00,
2013-03-04 07:50:00,31.5,21.5,29.82,SW,227,1.0,4.0,66,0.00,,---,0.00,VWS V13.01,2013-03-04 12:50:00,
2013-03-04 07:55:00,31.7,21.7,29.81,NW,306,4.0,11.0,66,0.00,,---,0.00,VWS V13.01,2013-03-04 12:55:00,
2013-03-04 08:00:00,31.9,21.9,29.81,WNW,290,2.0,3.0,66,0.00,,---,0.00,VWS V13.01,2013-03-04 13:00:00,
2013-03-04 08:05:00,32.1,21.7,29.81,WNW,288,4.0,4.0,65,0.00,,---,0.00,VWS V13.01,2013-03-04 13:05:00,
2013-03-04 08:10:00,32.2,21.8,29.81,West,268,1.0,5.0,65,0.00,,---,0.00,VWS V13.01,2013-03-04 13:10:00,
2013-03-04 08:15:00,32.4,22.0,29.81,WNW,296,4.0,10.0,65,0.00,,---,0.00,VWS V13.01,2013-03-04 13:15:00,
2013-03-04 08:20:00,32.5,21.7,29.81,North,355,1.0,7.0,64,0.00,,---,0.00,VWS V13.01,2013-03-04 13:20:00,
2013-03-04 08:25:00,32.6,22.1,29.81,SSW,198,0.0,9.0,65,0.00,,---,0.00,VWS V13.01,2013-03-04 13:25:00,
2013-03-04 08:30:00,32.9,22.1,29.81,WNW,288,2.0,12.0,64,0.00,,---,0.00,VWS V13.01,2013-03-04 13:30:00,
2013-03-04 08:35:00,33.0,22.2,29.81,NE,54,1.0,7.0,64,0.00,,---,0.00,VWS V13.01,2013-03-04 13:35:00,
2013-03-04 08:40:00,33.1,22.3,29.81,WNW,295,4.0,5.0,64,0.00,,---,0.00,VWS V13.01,2013-03-04 13:40:00,
2013-03-04 08:45:00,33.3,22.1,29.81,West,267,2.0,7.0,63,0.00,,---,0.00,VWS V13.01,2013-03-04 13:45:00,
2013-03-04 08:50:00,33.4,22.2,29.81,WNW,300,6.0,6.0,63,0.00,,---,0.00,VWS V13.01,2013-03-04 13:50:00,
2013-03-04 08:55:00,33.5,22.3,29.81,NW,319,1.0,7.0,63,0.00,,---,0.00,VWS V13.01,2013-03-04 13:55:00,
2013-03-04 09:00:00,33.5,22.3,29.81,WNW,286,5.0,14.0,63,0.00,,---,0.00,VWS V13.01,2013-03-04 14:00:00,
2013-03-04 09:05:00,33.9,22.3,29.81,NW,313,3.0,3.0,62,0.00,,---,0.00,VWS V13.01,2013-03-04 14:05:00,
2013-03-04 09:10:00,34.0,22.4,29.80,NW,306,6.0,7.0,62,0.00,,---,0.00,VWS V13.01,2013-03-04 14:10:00,
2013-03-04 09:15:00,34.2,22.5,29.81,West,268,7.0,10.0,62,0.00,,---,0.00,VWS V13.01,2013-03-04 14:15:00,
2013-03-04 09:20:00,34.4,22.4,29.81,NW,312,1.0,4.0,61,0.00,,---,0.00,VWS V13.01,2013-03-04 14:20:00,
2013-03-04 09:25:00,34.5,22.5,29.81,NNE,27,7.0,10.0,61,0.00,,---,0.00,VWS V13.01,2013-03-04 14:25:00,
2013-03-04 09:30:00,34.6,22.5,29.81,NW,306,5.0,7.0,61,0.00,,---,0.00,VWS V13.01,2013-03-04 14:30:00,
2013-03-04 09:35:00,34.7,22.6,29.81,West,281,5.0,11.0,61,0.00,,---,0.00,VWS V13.01,2013-03-04 14:35:00,
2013-03-04 09:40:00,35.0,22.5,29.81,NW,304,7.0,7.0,60,0.00,,---,0.00,VWS V13.01,2013-03-04 14:40:00,
2013-03-04 09:45:00,34.9,22.4,29.81,NW,314,4.0,7.0,60,0.00,,---,0.00,VWS V13.01,2013-03-04 14:45:00,
2013-03-04 09:50:00,34.9,22.4,29.81,NNW,327,2.0,6.0,60,0.00,,---,0.00,VWS V13.01,2013-03-04 14:50:00,
2013-03-04 09:55:00,35.1,22.6,29.81,West,271,5.0,10.0,60,0.00,,---,0.00,VWS V13.01,2013-03-04 14:55:00,
2013-03-04 10:00:00,35.4,22.5,29.81,WNW,300,2.0,9.0,59,0.00,,---,0.00,VWS V13.01,2013-03-04 15:00:00,
2013-03-04 10:05:00,35.6,22.7,29.81,West,276,2.0,6.0,59,0.00,,---,0.00,VWS V13.01,2013-03-04 15:05:00,
2013-03-04 10:10:00,35.7,22.8,29.81,NNE,24,1.0,4.0,59,0.00,,---,0.00,VWS V13.01,2013-03-04 15:10:00,
2013-03-04 10:15:00,35.8,22.5,29.81,WNW,294,5.0,7.0,58,0.00,,---,0.00,VWS V13.01,2013-03-04 15:15:00,
2013-03-04 10:20:00,36.3,23.4,29.80,West,259,9.0,11.0,59,0.00,,---,0.00,VWS V13.01,2013-03-04 15:20:00,
2013-03-04 10:25:00,36.1,22.4,29.81,WSW,239,2.0,6.0,57,0.00,,---,0.00,VWS V13.01,2013-03-04 15:25:00,
2013-03-04 10:30:00,36.2,22.9,29.81,West,271,3.0,5.0,58,0.00,,---,0.00,VWS V13.01,2013-03-04 15:30:00,
2013-03-04 10:35:00,36.7,23.3,29.81,NE,47,4.0,7.0,58,0.00,,---,0.00,VWS V13.01,2013-03-04 15:35:00,
2013-03-04 10:40:00,37.0,22.8,29.81,East,80,10.0,10.0,56,0.00,,---,0.00,VWS V13.01,2013-03-04 15:40:00,
2013-03-04 10:45:00,37.0,22.8,29.81,SE,137,5.0,5.0,56,0.00,,---,0.00,VWS V13.01,2013-03-04 15:45:00,
2013-03-04 10:50:00,37.1,22.9,29.81,SSW,196,2.0,6.0,56,0.00,,---,0.00,VWS V13.01,2013-03-04 15:50:00,
2013-03-04 10:55:00,37.4,23.1,29.81,South,187,3.0,4.0,56,0.00,,---,0.00,VWS V13.01,2013-03-04 15:55:00,
2013-03-04 11:00:00,37.7,23.4,29.81,WSW,254,1.0,7.0,56,0.00,,---,0.00,VWS V13.01,2013-03-04 16:00:00,
2013-03-04 11:05:00,38.1,23.4,29.80,NNW,327,1.0,4.0,55,0.00,,---,0.00,VWS V13.01,2013-03-04 16:05:00,
2013-03-04 11:10:00,38.1,22.9,29.80,NW,323,5.0,6.0,54,0.00,,---,0.00,VWS V13.01,2013-03-04 16:10:00,
2013-03-04 11:15:00,38.4,23.7,29.80,WNW,294,7.0,10.0,55,0.00,,---,0.00,VWS V13.01,2013-03-04 16:15:00,
2013-03-04 11:20:00,38.9,24.1,29.80,West,267,3.0,6.0,55,0.00,,---,0.00,VWS V13.01,2013-03-04 16:20:00,
2013-03-04 11:25:00,39.2,23.5,29.81,West,280,5.0,11.0,53,0.00,,---,0.00,VWS V13.01,2013-03-04 16:25:00,
2013-03-04 11:30:00,39.3,23.6,29.81,WSW,256,5.0,6.0,53,0.00,,---,0.00,VWS V13.01,2013-03-04 16:30:00,
2013-03-04 11:35:00,39.5,23.8,29.81,NNE,32,5.0,13.0,53,0.00,,---,0.00,VWS V13.01,2013-03-04 16:35:00,
2013-03-04 11:40:00,39.7,23.1,29.80,ENE,57,1.0,4.0,51,0.00,,---,0.00,VWS V13.01,2013-03-04 16:40:00,
2013-03-04 11:45:00,39.5,23.4,29.80,West,275,6.0,10.0,52,0.00,,---,0.00,VWS V13.01,2013-03-04 16:45:00,
2013-03-04 11:50:00,39.5,23.4,29.80,NE,36,2.0,7.0,52,0.00,,---,0.00,VWS V13.01,2013-03-04 16:50:00,
2013-03-04 11:55:00,39.8,23.2,29.79,WNW,283,4.0,9.0,51,0.00,,---,0.00,VWS V13.01,2013-03-04 16:55:00,
2013-03-04 12:00:00,39.9,22.8,29.80,WNW,302,2.0,6.0,50,0.00,,---,0.00,VWS V13.01,2013-03-04 17:00:00,
2013-03-04 12:05:00,39.9,23.3,29.79,NW,312,2.0,6.0,51,0.00,,---,0.00,VWS V13.01,2013-03-04 17:05:00,
2013-03-04 12:10:00,40.5,23.8,29.79,NW,315,3.0,7.0,51,0.00,,---,0.00,VWS V13.01,2013-03-04 17:10:00,
2013-03-04 12:15:00,40.8,23.6,29.79,WNW,302,0.0,8.0,50,0.00,,---,0.00,VWS V13.01,2013-03-04 17:15:00,
2013-03-04 12:20:00,41.1,23.9,29.79,SSW,211,3.0,4.0,50,0.00,,---,0.00,VWS V13.01,2013-03-04 17:20:00,
2013-03-04 12:25:00,41.4,24.2,29.79,WNW,291,5.0,5.0,50,0.00,,---,0.00,VWS V13.01,2013-03-04 17:25:00,
2013-03-04 12:30:00,41.4,23.7,29.79,West,263,3.0,6.0,49,0.00,,---,0.00,VWS V13.01,2013-03-04 17:30:00,
2013-03-04 12:35:00,41.3,23.6,29.78,NE,38,2.0,7.0,49,0.00,,---,0.00,VWS V13.01,2013-03-04 17:35:00,
2013-03-04 12:40:00,41.5,23.8,29.79,NW,310,4.0,4.0,49,0.00,,---,0.00,VWS V13.01,2013-03-04 17:40:00,
2013-03-04 12:45:00,41.6,23.9,29.78,NW,316,3.0,6.0,49,0.00,,---,0.00,VWS V13.01,2013-03-04 17:45:00,
2013-03-04 12:50:00,41.9,25.1,29.78,WNW,294,6.0,9.0,51,0.00,,---,0.00,VWS V13.01,2013-03-04 17:50:00,
2013-03-04 12:55:00,41.9,24.1,29.78,SW,230,0.0,2.0,49,0.00,,---,0.00,VWS V13.01,2013-03-04 17:55:00,
2013-03-04 13:00:00,41.5,24.3,29.78,WSW,243,9.0,17.0,50,0.00,,---,0.00,VWS V13.01,2013-03-04 18:00:00,
2013-03-04 13:05:00,41.8,24.5,29.77,NW,309,11.0,11.0,50,0.00,,---,0.00,VWS V13.01,2013-03-04 18:05:00,
2013-03-04 13:10:00,42.1,24.8,29.77,West,267,6.0,11.0,50,0.00,,---,0.00,VWS V13.01,2013-03-04 18:10:00,
2013-03-04 13:15:00,42.4,24.6,29.77,West,269,2.0,4.0,49,0.00,,---,0.00,VWS V13.01,2013-03-04 18:15:00,
2013-03-04 13:20:00,42.3,24.5,29.77,WSW,237,1.0,3.0,49,0.00,,---,0.00,VWS V13.01,2013-03-04 18:20:00,
2013-03-04 13:24:00,42.3,25.0,29.77,SW,222,2.0,10.0,50,0.00,,---,0.00,VWS V13.01,2013-03-04 18:24:00,
2013-03-04 13:29:00,42.7,25.4,29.77,West,267,5.0,6.0,50,0.00,,---,0.00,VWS V13.01,2013-03-04 18:29:00,
2013-03-04 13:34:00,43.2,25.4,29.77,WNW,300,4.0,4.0,49,0.00,,---,0.00,VWS V13.01,2013-03-04 18:34:00,
2013-03-04 13:39:00,43.2,24.9,29.76,South,185,9.0,9.0,48,0.00,,---,0.00,VWS V13.01,2013-03-04 18:39:00,
2013-03-04 13:44:00,43.2,24.9,29.77,WSW,241,2.0,7.0,48,0.00,,---,0.00,VWS V13.01,2013-03-04 18:44:00,
2013-03-04 13:50:00,43.1,24.8,29.77,NNE,13,6.0,13.0,48,0.00,,---,0.00,VWS V13.01,2013-03-04 18:50:00,
2013-03-04 13:54:00,42.6,24.8,29.77,NNE,31,6.0,6.0,49,0.00,,---,0.00,VWS V13.01,2013-03-04 18:54:00,
2013-03-04 13:59:00,42.7,24.9,29.77,SSE,159,5.0,8.0,49,0.00,,---,0.00,VWS V13.01,2013-03-04 18:59:00,
2013-03-04 14:04:00,42.9,24.6,29.77,WSW,252,3.0,4.0,48,0.00,,---,0.00,VWS V13.01,2013-03-04 19:04:00,
2013-03-04 14:09:00,43.0,25.2,29.77,West,270,5.0,5.0,49,0.00,,---,0.00,VWS V13.01,2013-03-04 19:09:00,
2013-03-04 14:14:00,43.2,25.4,29.77,WSW,257,2.0,7.0,49,0.00,,---,0.00,VWS V13.01,2013-03-04 19:14:00,
2013-03-04 14:19:00,43.3,24.9,29.76,SW,229,7.0,10.0,48,0.00,,---,0.00,VWS V13.01,2013-03-04 19:19:00,
2013-03-04 14:24:00,43.4,25.0,29.76,WNW,296,3.0,7.0,48,0.00,,---,0.00,VWS V13.01,2013-03-04 19:24:00,
2013-03-04 14:29:00,43.5,25.1,29.77,WNW,291,6.0,7.0,48,0.00,,---,0.00,VWS V13.01,2013-03-04 19:29:00,
2013-03-04 14:34:00,43.2,24.9,29.77,WSW,242,0.0,6.0,48,0.00,,---,0.00,VWS V13.01,2013-03-04 19:34:00,
2013-03-04 14:39:00,43.2,25.4,29.77,NNW,342,6.0,7.0,49,0.00,,---,0.00,VWS V13.01,2013-03-04 19:39:00,
2013-03-04 14:44:00,43.5,25.1,29.77,SE,134,5.0,12.0,48,0.00,,---,0.00,VWS V13.01,2013-03-04 19:44:00,
2013-03-04 14:49:00,43.7,24.8,29.77,NNE,19,4.0,10.0,47,0.00,,---,0.00,VWS V13.01,2013-03-04 19:49:00,
2013-03-04 14:54:00,43.7,24.8,29.77,WNW,286,5.0,10.0,47,0.00,,---,0.00,VWS V13.01,2013-03-04 19:54:00,
2013-03-04 14:59:00,43.7,25.3,29.77,SSE,148,2.0,12.0,48,0.00,,---,0.00,VWS V13.01,2013-03-04 19:59:00,
2013-03-04 15:04:00,43.4,25.0,29.76,SSE,148,7.0,7.0,48,0.00,,---,0.00,VWS V13.01,2013-03-04 20:04:00,
2013-03-04 15:09:00,43.3,24.9,29.77,SSW,194,5.0,7.0,48,0.00,,---,0.00,VWS V13.01,2013-03-04 20:09:00,
2013-03-04 15:14:00,43.3,24.9,29.77,WSW,246,10.0,12.0,48,0.00,,---,0.00,VWS V13.01,2013-03-04 20:14:00,
2013-03-04 15:19:00,43.2,25.4,29.76,SE,128,7.0,7.0,49,0.00,,---,0.00,VWS V13.01,2013-03-04 20:19:00,
2013-03-04 15:24:00,43.1,24.8,29.76,NW,306,1.0,5.0,48,0.00,,---,0.00,VWS V13.01,2013-03-04 20:24:00,
2013-03-04 15:28:00,41.6,38.0,29.77,SSE,158,9.0,14.0,87,0.00,,---,0.00,VWS V13.01,2013-03-04 20:28:00,
2013-03-04 15:29:00,43.0,25.2,29.77,NNW,343,1.0,2.0,49,0.00,,---,0.00,VWS V13.01,2013-03-04 20:29:00,
2013-03-04 15:34:00,43.2,25.4,29.77,West,275,4.0,6.0,49,0.00,,---,0.00,VWS V13.01,2013-03-04 20:34:00,
2013-03-04 15:39:00,43.1,24.8,29.77,West,269,1.0,1.0,48,0.00,,---,0.00,VWS V13.01,2013-03-04 20:39:00,
2013-03-04 15:44:00,42.9,24.6,29.77,South,182,2.0,7.0,48,0.00,,---,0.00,VWS V13.01,2013-03-04 20:44:00,
2013-03-04 15:49:00,42.8,25.0,29.76,WSW,240,3.0,7.0,49,0.00,,---,0.00,VWS V13.01,2013-03-04 20:49:00,
2013-03-04 15:54:00,42.8,25.0,29.77,WSW,250,2.0,4.0,49,0.00,,---,0.00,VWS V13.01,2013-03-04 20:54:00,
2013-03-04 15:59:00,42.5,24.7,29.77,West,259,0.0,2.0,49,0.00,,---,0.00,VWS V13.01,2013-03-04 20:59:00,
2013-03-04 16:04:00,42.5,24.7,29.77,NNE,13,6.0,6.0,49,0.00,,---,0.00,VWS V13.01,2013-03-04 21:04:00,
2013-03-04 16:09:00,42.4,24.6,29.77,SSE,150,3.0,11.0,49,0.00,,---,0.00,VWS V13.01,2013-03-04 21:09:00,
2013-03-04 16:14:00,42.3,24.5,29.77,SE,142,5.0,7.0,49,0.00,,---,0.00,VWS V13.01,2013-03-04 21:14:00,
2013-03-04 16:19:00,42.3,25.0,29.77,SW,230,6.0,6.0,50,0.00,,---,0.00,VWS V13.01,2013-03-04 21:19:00,
2013-03-04 16:24:00,42.3,24.5,29.77,WSW,242,3.0,6.0,49,0.00,,---,0.00,VWS V13.01,2013-03-04 21:24:00,
2013-03-04 16:29:00,42.3,24.5,29.77,WNW,286,2.0,7.0,49,0.00,,---,0.00,VWS V13.01,2013-03-04 21:29:00,
2013-03-04 16:34:00,42.2,24.4,29.77,NNW,334,4.0,6.0,49,0.00,,---,0.00,VWS V13.01,2013-03-04 21:34:00,
2013-03-04 16:39:00,42.2,24.9,29.78,NW,314,2.0,3.0,50,0.00,,---,0.00,VWS V13.01,2013-03-04 21:39:00,
2013-03-04 16:44:00,42.0,23.8,29.77,WNW,288,3.0,6.0,48,0.00,,---,0.00,VWS V13.01,2013-03-04 21:44:00,
2013-03-04 16:49:00,41.9,24.1,29.78,NNE,32,1.0,6.0,49,0.00,,---,0.00,VWS V13.01,2013-03-04 21:49:00,
2013-03-04 16:54:00,41.8,24.1,29.78,NNW,337,3.0,3.0,49,0.00,,---,0.00,VWS V13.01,2013-03-04 21:54:00,
2013-03-04 16:59:00,41.7,24.0,29.78,WNW,302,4.0,4.0,49,0.00,,---,0.00,VWS V13.01,2013-03-04 21:59:00,
2013-03-04 17:04:00,41.6,24.4,29.78,West,272,3.0,9.0,50,0.00,,---,0.00,VWS V13.01,2013-03-04 22:04:00,
2013-03-04 17:09:00,41.5,24.3,29.78,ENE,66,2.0,5.0,50,0.00,,---,0.00,VWS V13.01,2013-03-04 22:09:00,
2013-03-04 17:14:00,41.3,24.1,29.79,WNW,298,1.0,2.0,50,0.00,,---,0.00,VWS V13.01,2013-03-04 22:14:00,
2013-03-04 17:19:00,41.1,23.9,29.79,WSW,256,13.0,13.0,50,0.00,,---,0.00,VWS V13.01,2013-03-04 22:19:00,
2013-03-04 17:24:00,41.0,24.3,29.79,NW,309,2.0,3.0,51,0.00,,---,0.00,VWS V13.01,2013-03-04 22:24:00,
2013-03-04 17:29:00,40.9,23.7,29.79,West,273,7.0,7.0,50,0.00,,---,0.00,VWS V13.01,2013-03-04 22:29:00,
2013-03-04 17:34:00,40.7,24.0,29.79,West,265,1.0,4.0,51,0.00,,---,0.00,VWS V13.01,2013-03-04 22:34:00,
2013-03-04 17:39:00,40.4,24.2,29.80,WNW,298,2.0,2.0,52,0.00,,---,0.00,VWS V13.01,2013-03-04 22:39:00,
2013-03-04 17:44:00,40.2,24.0,29.80,WNW,295,4.0,5.0,52,0.00,,---,0.00,VWS V13.01,2013-03-04 22:44:00,
2013-03-04 17:49:00,40.1,23.9,29.80,WNW,283,3.0,3.0,52,0.00,,---,0.00,VWS V13.01,2013-03-04 22:49:00,
2013-03-04 17:54:00,39.8,23.6,29.80,WSW,239,5.0,10.0,52,0.00,,---,0.00,VWS V13.01,2013-03-04 22:54:00,
2013-03-04 17:59:00,39.7,24.0,29.81,West,269,4.0,4.0,53,0.00,,---,0.00,VWS V13.01,2013-03-04 22:59:00,
2013-03-04 18:04:00,39.5,23.8,29.81,NW,324,2.0,2.0,53,0.00,,---,0.00,VWS V13.01,2013-03-04 23:04:00,
2013-03-04 18:09:00,39.3,23.6,29.81,WNW,290,3.0,3.0,53,0.00,,---,0.00,VWS V13.01,2013-03-04 23:09:00,
2013-03-04 18:14:00,39.2,23.5,29.81,SW,215,0.0,2.0,53,0.00,,---,0.00,VWS V13.01,2013-03-04 23:14:00,
2013-03-04 18:19:00,39.1,23.9,29.82,WNW,296,1.0,1.0,54,0.00,,---,0.00,VWS V13.01,2013-03-04 23:19:00,
2013-03-04 18:24:00,38.9,23.7,29.82,West,265,0.0,2.0,54,0.00,,---,0.00,VWS V13.01,2013-03-04 23:24:00,
2013-03-04 18:29:00,38.8,24.0,29.82,WSW,256,2.0,3.0,55,0.00,,---,0.00,VWS V13.01,2013-03-04 23:29:00,
2013-03-04 18:34:00,38.7,23.9,29.82,West,280,5.0,5.0,55,0.00,,---,0.00,VWS V13.01,2013-03-04 23:34:00,
2013-03-04 18:39:00,38.6,23.8,29.82,West,270,1.0,3.0,55,0.00,,---,0.00,VWS V13.01,2013-03-04 23:39:00,
2013-03-04 18:44:00,38.5,23.8,29.82,West,268,0.0,2.0,55,0.00,,---,0.00,VWS V13.01,2013-03-04 23:44:00,
2013-03-04 18:49:00,38.4,23.7,29.83,WSW,237,1.0,2.0,55,0.00,,---,0.00,VWS V13.01,2013-03-04 23:49:00,
2013-03-04 18:54:00,38.2,23.5,29.83,WSW,249,1.0,2.0,55,0.00,,---,0.00,VWS V13.01,2013-03-04 23:54:00,
2013-03-04 18:59:00,38.1,23.8,29.83,NNW,340,0.0,1.0,56,0.00,,---,0.00,VWS V13.01,2013-03-04 23:59:00,
2013-03-04 19:04:00,38.0,23.7,29.83,SW,222,2.0,5.0,56,0.00,,---,0.00,VWS V13.01,2013-03-05 00:04:00,
2013-03-04 19:09:00,37.9,23.6,29.83,NE,36,4.0,6.0,56,0.00,,---,0.00,VWS V13.01,2013-03-05 00:09:00,
2013-03-04 19:14:00,37.9,23.6,29.84,West,267,2.0,6.0,56,0.00,,---,0.00,VWS V13.01,2013-03-05 00:14:00,
2013-03-04 19:19:00,37.8,24.0,29.84,West,271,2.0,3.0,57,0.00,,---,0.00,VWS V13.01,2013-03-05 00:19:00,
2013-03-04 19:24:00,37.7,23.9,29.84,WSW,254,4.0,7.0,57,0.00,,---,0.00,VWS V13.01,2013-03-05 00:24:00,
2013-03-04 19:29:00,37.6,23.8,29.84,WNW,299,1.0,3.0,57,0.00,,---,0.00,VWS V13.01,2013-03-05 00:29:00,
2013-03-04 19:34:00,37.6,23.8,29.85,ENE,60,0.0,4.0,57,0.00,,---,0.00,VWS V13.01,2013-03-05 00:34:00,
2013-03-04 19:39:00,37.5,23.7,29.85,WSW,257,7.0,7.0,57,0.00,,---,0.00,VWS V13.01,2013-03-05 00:39:00,
2013-03-04 19:44:00,37.4,23.6,29.85,West,270,2.0,3.0,57,0.00,,---,0.00,VWS V13.01,2013-03-05 00:44:00,
2013-03-04 19:49:00,37.3,23.9,29.85,WNW,288,2.0,2.0,58,0.00,,---,0.00,VWS V13.01,2013-03-05 00:49:00,
2013-03-04 19:53:00,39.5,37.1,29.69,WNW,292,7.0,15.0,91,0.04,,---,0.04,VWS V13.01,2013-03-05 00:53:00,
2013-03-04 19:54:00,37.2,23.8,29.85,NNW,331,4.0,5.0,58,0.00,,---,0.00,VWS V13.01,2013-03-05 00:54:00,
2013-03-04 19:59:00,37.1,23.7,29.86,WNW,290,1.0,1.0,58,0.00,,---,0.00,VWS V13.01,2013-03-05 00:59:00,
2013-03-04 20:04:00,37.1,23.7,29.86,WSW,238,11.0,11.0,58,0.00,,---,0.00,VWS V13.01,2013-03-05 01:04:00,
2013-03-04 20:09:00,37.0,23.6,29.86,WSW,250,1.0,1.0,58,0.00,,---,0.00,VWS V13.01,2013-03-05 01:09:00,
2013-03-04 20:14:00,36.9,23.9,29.86,WSW,237,3.0,3.0,59,0.00,,---,0.00,VWS V13.01,2013-03-05 01:14:00,
2013-03-04 20:19:00,36.8,23.8,29.86,NNW,331,8.0,13.0,59,0.00,,---,0.00,VWS V13.01,2013-03-05 01:19:00,
2013-03-04 20:24:00,36.6,23.6,29.86,WSW,257,5.0,5.0,59,0.00,,---,0.00,VWS V13.01,2013-03-05 01:24:00,
2013-03-04 20:29:00,36.5,23.5,29.86,WSW,246,1.0,2.0,59,0.00,,---,0.00,VWS V13.01,2013-03-05 01:29:00,
2013-03-04 20:34:00,36.5,24.0,29.86,WSW,254,2.0,3.0,60,0.00,,---,0.00,VWS V13.01,2013-03-05 01:34:00,
2013-03-04 20:39:00,36.4,23.9,29.86,WNW,284,5.0,5.0,60,0.00,,---,0.00,VWS V13.01,2013-03-05 01:39:00,
2013-03-04 20:44:00,36.3,23.8,29.87,WSW,257,1.0,1.0,60,0.00,,---,0.00,VWS V13.01,2013-03-05 01:44:00,
2013-03-04 20:49:00,36.1,24.0,29.86,WSW,244,0.0,0.0,61,0.00,,---,0.00,VWS V13.01,2013-03-05 01:49:00,
2013-03-04 20:54:00,36.0,23.9,29.87,West,279,1.0,2.0,61,0.00,,---,0.00,VWS V13.01,2013-03-05 01:54:00,
2013-03-04 20:59:00,35.9,23.8,29.87,WSW,237,0.0,0.0,61,0.00,,---,0.00,VWS V13.01,2013-03-05 01:59:00,
2013-03-04 21:04:00,35.7,24.0,29.87,SSW,210,1.0,1.0,62,0.00,,---,0.00,VWS V13.01,2013-03-05 02:04:00,
2013-03-04 21:09:00,35.5,23.8,29.87,SW,233,1.0,1.0,62,0.00,,---,0.00,VWS V13.01,2013-03-05 02:09:00,
2013-03-04 21:14:00,35.4,23.7,29.87,SW,232,0.0,1.0,62,0.00,,---,0.00,VWS V13.01,2013-03-05 02:14:00,
2013-03-04 21:19:00,35.4,23.7,29.87,West,261,3.0,3.0,62,0.00,,---,0.00,VWS V13.01,2013-03-05 02:19:00,
2013-03-04 21:24:00,35.3,24.0,29.87,WNW,284,0.0,1.0,63,0.00,,---,0.00,VWS V13.01,2013-03-05 02:24:00,
2013-03-04 21:29:00,35.2,23.9,29.87,WSW,251,0.0,0.0,63,0.00,,---,0.00,VWS V13.01,2013-03-05 02:29:00,
2013-03-04 21:34:00,35.2,23.9,29.88,SW,230,2.0,2.0,63,0.00,,---,0.00,VWS V13.01,2013-03-05 02:34:00,
2013-03-04 21:39:00,35.1,23.8,29.88,WSW,249,0.0,0.0,63,0.00,,---,0.00,VWS V13.01,2013-03-05 02:39:00,
2013-03-04 21:44:00,35.0,24.1,29.88,WSW,239,0.0,0.0,64,0.00,,---,0.00,VWS V13.01,2013-03-05 02:44:00,
2013-03-04 21:49:00,34.9,24.0,29.88,SW,229,1.0,2.0,64,0.00,,---,0.00,VWS V13.01,2013-03-05 02:49:00,
2013-03-04 21:54:00,34.7,23.8,29.88,SSW,207,1.0,1.0,64,0.00,,---,0.00,VWS V13.01,2013-03-05 02:54:00,
2013-03-04 21:59:00,34.7,23.8,29.89,West,259,0.0,1.0,64,0.00,,---,0.00,VWS V13.01,2013-03-05 02:59:00,
2013-03-04 22:04:00,34.7,23.8,29.89,WSW,242,0.0,1.0,64,0.00,,---,0.00,VWS V13.01,2013-03-05 03:04:00,
2013-03-04 22:09:00,34.6,23.7,29.89,West,275,2.0,4.0,64,0.00,,---,0.00,VWS V13.01,2013-03-05 03:09:00,
2013-03-04 22:14:00,34.6,23.7,29.89,WSW,247,0.0,0.0,64,0.00,,---,0.00,VWS V13.01,2013-03-05 03:14:00,
2013-03-04 22:19:00,34.6,24.1,29.89,SW,230,0.0,2.0,65,0.00,,---,0.00,VWS V13.01,2013-03-05 03:19:00,
2013-03-04 22:24:00,34.5,24.0,29.89,West,261,1.0,1.0,65,0.00,,---,0.00,VWS V13.01,2013-03-05 03:24:00,
2013-03-04 22:29:00,34.3,23.8,29.89,WSW,256,0.0,1.0,65,0.00,,---,0.00,VWS V13.01,2013-03-05 03:29:00,
2013-03-04 22:34:00,34.3,23.8,29.89,West,277,0.0,0.0,65,0.00,,---,0.00,VWS V13.01,2013-03-05 03:34:00,
2013-03-04 22:39:00,34.2,24.0,29.89,WSW,251,0.0,3.0,66,0.00,,---,0.00,VWS V13.01,2013-03-05 03:39:00,
2013-03-04 22:44:00,34.1,24.0,29.89,SSW,210,0.0,0.0,66,0.00,,---,0.00,VWS V13.01,2013-03-05 03:44:00,
2013-03-04 22:49:00,33.9,23.8,29.90,SSW,207,0.0,0.0,66,0.00,,---,0.00,VWS V13.01,2013-03-05 03:49:00,
2013-03-04 22:54:00,33.8,23.7,29.90,SSW,208,0.0,0.0,66,0.00,,---,0.00,VWS V13.01,2013-03-05 03:54:00,
2013-03-04 22:59:00,33.7,23.6,29.90,SSW,207,0.0,0.0,66,0.00,,---,0.00,VWS V13.01,2013-03-05 03:59:00,
2013-03-04 23:04:00,33.4,23.6,29.90,SSW,207,0.0,0.0,67,0.00,,---,0.00,VWS V13.01,2013-03-05 04:04:00,
2013-03-04 23:09:00,33.2,23.5,29.90,SW,217,0.0,0.0,67,0.00,,---,0.00,VWS V13.01,2013-03-05 04:09:00,
2013-03-04 23:14:00,33.0,23.6,29.90,WSW,248,0.0,2.0,68,0.00,,---,0.00,VWS V13.01,2013-03-05 04:14:00,
2013-03-04 23:19:00,32.8,23.8,29.90,WSW,242,0.0,0.0,69,0.00,,---,0.00,VWS V13.01,2013-03-05 04:19:00,
2013-03-04 23:24:00,32.6,23.6,29.90,SW,225,0.0,1.0,69,0.00,,---,0.00,VWS V13.01,2013-03-05 04:24:00,
2013-03-04 23:29:00,32.3,23.6,29.90,West,267,1.0,2.0,70,0.00,,---,0.00,VWS V13.01,2013-03-05 04:29:00,
2013-03-04 23:34:00,32.1,23.4,29.90,WSW,253,1.0,1.0,70,0.00,,---,0.00,VWS V13.01,2013-03-05 04:34:00,
2013-03-04 23:39:00,31.9,23.6,29.90,SW,227,0.0,1.0,71,0.00,,---,0.00,VWS V13.01,2013-03-05 04:39:00,
2013-03-04 23:44:00,31.8,23.8,29.91,SW,227,0.0,0.0,72,0.00,,---,0.00,VWS V13.01,2013-03-05 04:44:00,
2013-03-04 23:49:00,31.7,23.7,29.91,WSW,244,0.0,0.0,72,0.00,,---,0.00,VWS V13.01,2013-03-05 04:49:00,
2013-03-04 23:54:00,31.7,23.7,29.91,WSW,244,0.0,1.0,72,0.00,,---,0.00,VWS V13.01,2013-03-05 04:54:00,
2013-03-04 23:59:00,31.6,23.6,29.91,SW,230,1.0,1.0,72,0.00,,---,0.00,VWS V13.01,2013-03-05 04:59:00,